Simultaneous Nadir Overpasses (SNOs) Predictions

Prediction of SNOs between AQUA and NOAA-19 Satellite Orbit:

Table of predicted SNOs for the next 14.0 days since TLE Epoch: 10/1/2022
Index Date (AQUA) Time (AQUA) Lat,Lon (AQUA) SZA (AQUA ) Date (NOAA-19) Time (NOAA-19) Lat,Lon (NOAA-19) SZA (NOAA-19 ) Distance(km) Time Diff (sec)
1 10/02/2022 12:01:06 -77.21, 165.47 98.92 10/02/2022 12:00:05 -77.20, 165.39 98.92 2.60 61
2 10/02/2022 12:50:34 77.28, -27.15 81.17 10/02/2022 12:51:05 77.28, -26.98 81.16 4.38 31
3 10/04/2022 17:34:11 77.20, -97.75 81.92 10/04/2022 17:32:58 77.18, -97.81 81.92 2.61 73
4 10/04/2022 18:23:37 -77.23, 69.78 98.04 10/04/2022 18:23:54 -77.24, 69.69 98.03 2.23 17
5 10/06/2022 23:56:42 77.25, 166.46 82.84 10/06/2022 23:56:47 77.23, 166.54 82.82 2.39 5
6 10/09/2022 05:29:44 -77.20, -96.59 96.38 10/09/2022 05:29:34 -77.23, -96.61 96.35 3.37 10
7 10/09/2022 06:19:22 77.72, 68.88 84.25 10/09/2022 06:20:25 77.72, 73.09 84.06 99.55 63
8 10/11/2022 11:02:48 77.22, 0.08 84.48 10/11/2022 11:02:28 77.20, 0.13 84.47 2.03 20
9 10/11/2022 11:52:14 -77.24, 167.62 95.48 10/11/2022 11:53:23 -77.25, 167.63 95.48 0.87 69
10 10/13/2022 16:35:49 -77.17, 97.03 94.75 10/13/2022 16:35:14 -77.20, 97.01 94.71 3.80 35



Historial Predications of SNOs between AQUA and NOAA-19
